Overview Statistics Trail Chart Weather Telemetry Raw packets
 

This is the latest recevied weather packets stored in our database for station/object EB1BWO-11. If no packets are shown the sender has not sent any weather packets the latest 10 day(s).

<< 21 22 23 24 25 26 27 >>
Time Temp. Humidity Pressure Rain* Wind** Luminosity Snow
1788086621 21.67° C 63% 1021.8 hPa - - - -
1788085721 20.56° C 65% 1021.9 hPa - - - -
1788084820 21.11° C 66% 1021.8 hPa - - - -
1788050453 20° C 59% 1020.7 hPa - - - -
1788049553 20.56° C 58% 1020.8 hPa - - - -
1788048652 20.56° C 58% 1020.8 hPa - - - -
1788047752 21.11° C 58% 1020.9 hPa - - - -
1788046852 21.11° C 57% 1021 hPa - - - -
1788045952 21.11° C 57% 1021 hPa - - - -
1788045052 21.67° C 58% 1021.2 hPa - - - -
1788044152 21.67° C 58% 1021.4 hPa - - - -
1788043252 21.67° C 58% 1021.5 hPa - - - -
1788042352 21.67° C 58% 1021.6 hPa - - - -
1788041451 21.67° C 59% 1021.7 hPa - - - -
1788040551 21.67° C 58% 1021.7 hPa - - - -
1788039651 21.67° C 58% 1021.6 hPa - - - -
1788038751 22.22° C 58% 1021.5 hPa - - - -
1788037851 22.22° C 57% 1021.7 hPa - - - -
1788036951 22.78° C 56% 1021.7 hPa - - - -
1788036051 22.78° C 57% 1021.6 hPa - - - -
1788035150 22.78° C 57% 1021.6 hPa - - - -
1788034250 23.33° C 56% 1021.4 hPa - - - -
1788033350 23.33° C 55% 1021.3 hPa - - - -
1788032450 23.33° C 55% 1021.1 hPa - - - -
1788031550 23.89° C 55% 1021 hPa - - - -

* Rain since midnight (hover to see other rain measurements)
** Current wind speed in m/s (hover to see current wind gust speed)